Regional Weather Roundup
Issued by NWS State College, PA

Home | Current Version | Previous Version | Text Only | Print | Product List | Glossary On
Versions: 1 2 3 4 5 6 7 8 9 10 11 12 13 14 15 16 17 18 19 20 21 22 23 24 25 26 27 28 29 30 31 32 33 34 35 36 37 38 39 40 41 42 43 44 45 46 47 48 49 50
000
ASUS41 KCTP 271503
RWRCTP

REGIONAL WEATHER ROUNDUP
NATIONAL WEATHER SERVICE STATE COLLEGE PA
1100 AM EDT THU APR 27 2017

Note: "fair" indicates few or no clouds below 12,000 feet with no
significant weather and/or obstructions to visibility.

* = STATION THAT DOES NOT REPORT PRECIPITATION /E.G. RAIN...SNOW...ETC/
    THUNDER OR FOG.

PAZ002>004-007>009-013>016-020>023-029>032-271600-
WESTERN PENNSYLVANIA

CITY           SKY/WX    TMP DP  RH WIND       PRES   REMARKS
ERIE           CLOUDY    76  59  55 S15       29.63
MEADVILLE      CLOUDY    73  58  59 S8        29.68
FRANKLIN*      CLOUDY    72  57  60 SE10G17   29.72F
NEW CASTLE     FAIR      74  59  59 SE8       29.68
BEAVER COUNTY  SUNNY     72  57  60 SE8       29.69
BUTLER*        CLOUDY    73  59  60 S7        29.71F
PITTSBURGH INT CLOUDY    74  58  57 S10       29.69
PITTSBURGH     CLOUDY    73  54  51 S13       29.70
INDIANA*       SUNNY     77  57  50 S7G13     29.78F
LATROBE        NOT AVBL
WASHINGTON CO* MOSUNNY   75  55  50 S12G17    29.72F
$$

PAZ004>006-010>012-017>019-024>028-033>037-041-042-045-046-049>053-271600-
CENTRAL PENNSYLVANIA

CITY           SKY/WX    TMP DP  RH WIND       PRES   REMARKS
BRADFORD       MOSUNNY   68  58  70 SE10G16   29.79
DUBOIS         MOSUNNY   69  57  65 E10       29.77
CLEARFIELD     CLOUDY    67  60  78 VRB5      29.82
JOHNSTOWN      CLOUDY    67  58  72 SE9       29.80
ALTOONA        CLOUDY    64  60  87 S3        29.84
STATE COLLEGE  CLOUDY    63  57  82 CALM      29.84
WILLIAMSPORT   CLOUDY    63  58  83 E6        29.84  HAZE
SELINSGROVE    CLOUDY    64  60  87 S7        29.86R
FT INDIANTOWN  CLOUDY    64  64 100 SE5       29.87R
CAPITAL CITY   CLOUDY    65  58  78 E9        29.86F
HARRISBURG     CLOUDY    66  61  84 SE7       29.86S
YORK           CLOUDY    67  62  84 SW6       29.86
$$

PAZ038>040-043-044-047-048-054-055-060>062-067>071-271600-
EASTERN PENNSYLVANIA

CITY           SKY/WX    TMP DP  RH WIND       PRES   REMARKS
SCRANTON       CLOUDY    67  58  72 S8        29.86
MOUNT POCONO   CLOUDY    56  56 100 SE7       29.90  FOG
ALLENTOWN      CLOUDY    67  57  70 S3        29.89S
QUAKERTOWN*    CLOUDY    68  59  73 SE6       29.90S
READING        CLOUDY    67  61  81 VRB5      29.87
LANCASTER      PTSUNNY   70  64  81 SE9       29.87
COATESVILLE    MOSUNNY   68  61  77 E8G14     29.90R
POTTSTOWN      CLOUDY    66  59  78 VRB5      29.90S
BLUE BELL      PTSUNNY   66  59  77 E8        29.90F
DOYLESTOWN     CLOUDY    65  59  81 S6        29.89
WILLOW GROVE   NOT AVBL
NORTH PHILA    CLOUDY    68  59  73 SE5       29.91
PHILADELPHIA   MOSUNNY   71  60  68 SE6       29.89
$$



USA.gov is the U.S. government's official web portal to all federal, state and local government web resources and services.